DECAYED

STARLINK-1960, 47561 (Decayed)

Orbit data source: Space-Track

STARLINK-1960, 47561 was a payload satellite owned by SpaceX/Seattle (US) in LEO that was launched on Thu, 04 Feb 2021 UTC via an FALCON 9 launch vehicle from the Air Force Eastern Test Range (AFETR). Payload-class satellites include a variety of spacecraft equipped with specific instruments for various scientific and technological missions. These include communications satellites like Starlink; space stations such as the ISS; scientific satellites like the Hubble; Earth observation satellites from companies like Planet Labs, Umbra, and HawkEye 360; GPS; miniature CubeSats for education and research; and military/defense satellites.

Not visible in the next 10 days
Identifier
47561, 2021-009P
Orbit
Decayed
Country
Flag of USUS
Related business
Manufacturer
SpaceX/Seattle
Mission
Decayed Commercial Communications
Bus & Motor
STARLINK, Unknown motor
Mass
260 kg wet, ~248 kg dry
Launch date (UTC)
2021-02-04 (5 years ago)
Launch vehicle
FALCON 9
Launch site
Air Force Eastern Test Range (AFETR)
Object type
Payload
Rocket body
Debris
Shape & HBR
Box + 1 Pan, 10.1 m
Radar Cross Section
13.562 m², Large (>1 m²)

Expand to show TLE details & history
Last TLE update: 1 year ago

TLE from 1 year ago
0 STARLINK-1960
1 47561U 21009P   25135.81781569  .17546736  12604-4  44478-3 0  9992
2 47561  53.0201 239.7485 0009905 305.4583 149.4898 16.45149143237053
Epoch: 2025-05-15T19:37Z
TLE epoch observation values (Epoch: 2025-05-15T19:37:39.275Z)
Latitude
52.88949°
Longitude
169.84653°
Altitude
164.121 km
Speed
7.811 km/s
True Right ascension
22h 32m 10s
True Declination
52° 42' 32"
Sunlit
Object was in daylight at epoch
Visualization orbit readout
Latitude
Unknown
Longitude
Unknown
Altitude
Unknown
Speed
Unknown
Apparent Right ascension
Unknown
Apparent Declination
Unknown
Sunlit
N/A
Visualization observer readout
Local Sidereal Time
21:30:18
Azimuth
Unknown
Elevation
Unknown
Doppler factor
Unknown
Orbital elements
Apogee altitude
158.902 km
Perigee altitude
145.965 km
Semi-major axis
6,530.57 km
Eccentricity
0.00099
Inclination
53.0201°
RAAN
239.7485°
Arg. of periapsis
305.4583°
True anomaly
149.54736°
Mean anomaly
149.4898°
Eccentric anomaly
149.51859°
Mean motion
4.1126 °/min
Orbital period
87.54 mins
BSTAR
0.00044478
Loading maneuver chart data...
Computing Atmospheric mass density...

Documentation

Showing up to 5 results
|